Hutchinson, MN

3:09 AM CDT on April 25, 2017 (GMT -0500)
Hutchinson Municipal-Butler

Weather History for KHCD - December, 2013

Change the Weather History Date:

Tuesday, December 3, 2013

  Actual Average Record
Temperature  
Mean Temperature 34 °F -  
Max Temperature 35 °F 28 °F 60 °F (1982)
Min Temperature 32 °F 13 °F -21 °F (1985)
Degree Days  
Heating Degree Days 32    
Moisture  
Dew Point 34 °F    
Average Humidity 100    
Maximum Humidity 100    
Minimum Humidity 98    
Precipitation  
Precipitation 0.01 in - - ()
Sea Level Pressure  
Sea Level Pressure 29.67 in    
Wind  
Wind Speed 3 mph (NE)    
Max Wind Speed 10 mph    
Max Gust Speed -    
Visibility 1 miles    
Events Fog    
Averages and records for this station are not official NWS values.
T = Trace of Precipitation, MM = Missing Value Source: NWS Daily Summary

Daily Weather History Graph

Daily Weather History Graph

Search for Another Location

Airport or City:

Trip Planner

Search our weather history database for the weather conditions in past years. The results will help you decide how hot, cold, wet, or windy it might be!

Date:

Astronomy

Dec. 03, 2013 Rise Set
Actual Time 7:37 AM CST 4:37 PM CST
Civil Twilight 7:04 AM CST 5:10 PM CST
Nautical Twilight 6:27 AM CST 5:47 PM CST
Astronomical Twilight 5:52 AM CST 6:22 PM CST
Moon 8:06 AM CST (12/3) 5:42 PM CST (12/3)
Length of Visible Light 10h 05m
Length of Day
8h 59m
New Moon, 1% of the Moon is Illuminated
Dec 3
New Moon
Dec 9
First Quarter
Dec 17
Full
Dec 25
Last Quarter
Jan 1
New

Hourly Weather History & Observations

Time (CST) Temp. Windchill Dew Point Humidity Pressure Visibility Wind Dir Wind Speed Gust Speed Precip Events Conditions
12:13 AM 33.8 °F 30.8 °F 33.3 °F 98% 29.56 in 1.8 mi East 3.5 mph - N/A   Overcast
12:33 AM 33.8 °F - 33.4 °F 99% 29.56 in 2.0 mi Calm Calm - N/A   Overcast
12:54 AM 33.8 °F - 33.4 °F 99% 29.56 in 1.8 mi Calm Calm - N/A   Overcast
1:13 AM 33.8 °F - 33.3 °F 98% 29.57 in 1.8 mi Calm Calm - N/A   Overcast
1:33 AM 33.4 °F - 33.1 °F 99% 29.57 in 1.5 mi Calm Calm - N/A   Overcast
1:54 AM 33.4 °F - 33.3 °F 99% 29.58 in 1.5 mi Calm Calm - N/A   Overcast
2:13 AM 33.3 °F - 33.1 °F 99% 29.58 in 1.2 mi Calm Calm - N/A   Overcast
2:33 AM 33.1 °F - 33.1 °F 100% 29.59 in 1.2 mi Calm Calm - N/A   Overcast
2:53 AM 33.1 °F - 32.9 °F 99% 29.58 in 1.2 mi Calm Calm - N/A   Overcast
3:13 AM 32.9 °F - 32.9 °F 100% 29.58 in 1.0 mi Calm Calm - N/A   Overcast
3:33 AM 32.9 °F - 32.9 °F 100% 29.59 in 0.8 mi Calm Calm - N/A   Overcast
3:53 AM 32.9 °F - 32.9 °F 100% 29.58 in 0.2 mi Calm Calm - N/A Fog Fog
4:14 AM 32.9 °F 29.8 °F 32.9 °F 100% 29.60 in 0.2 mi ESE 3.5 mph - N/A Fog Fog
4:33 AM 32.9 °F - 32.9 °F 100% 29.60 in 0.2 mi Calm Calm - N/A Fog Fog
4:53 AM 32.9 °F - 32.9 °F 100% 29.60 in 0.2 mi Calm Calm - N/A Fog Fog
5:13 AM 32.9 °F - 32.9 °F 100% 29.60 in 0.2 mi Calm Calm - N/A Fog Fog
5:33 AM 32.9 °F - 32.9 °F 100% 29.60 in 0.2 mi Calm Calm - N/A Fog Fog
5:53 AM 32.9 °F - 32.9 °F 100% 29.60 in 0.2 mi Calm Calm - N/A Fog Fog
6:13 AM 32.9 °F - 33.1 °F 100% 29.61 in 0.2 mi Calm Calm - N/A Fog Fog
6:34 AM 33.1 °F - 33.3 °F 100% 29.62 in 0.5 mi Calm Calm - N/A Fog Fog
6:53 AM 33.1 °F - 33.3 °F 100% 29.62 in 0.2 mi Calm Calm - N/A Fog Fog
7:13 AM 33.3 °F 28.9 °F 33.3 °F 100% 29.62 in 0.2 mi NNE 4.6 mph - N/A Fog Fog
7:33 AM 33.4 °F 29.1 °F 33.6 °F 100% 29.63 in 0.2 mi NE 4.6 mph - N/A Fog Fog
7:53 AM 33.4 °F 30.4 °F 33.8 °F 100% 29.64 in 0.2 mi NNE 3.5 mph - N/A Fog Fog
8:13 AM 33.4 °F 30.4 °F 33.8 °F 100% 29.64 in 0.2 mi NE 3.5 mph - N/A Fog Fog
8:33 AM 33.4 °F - 33.8 °F 100% 29.65 in 0.2 mi Calm Calm - N/A Fog Fog
8:53 AM 33.4 °F 30.4 °F 33.8 °F 100% 29.65 in 0.2 mi NE 3.5 mph - N/A Fog Fog
9:13 AM 33.8 °F 30.8 °F 33.8 °F 100% 29.66 in 0.2 mi ENE 3.5 mph - N/A Fog Fog
9:33 AM 33.8 °F 30.8 °F 33.8 °F 100% 29.66 in 0.2 mi NE 3.5 mph - N/A Fog Fog
9:53 AM 33.8 °F 29.6 °F 33.8 °F 100% 29.67 in 0.2 mi ENE 4.6 mph - N/A Fog Fog
10:13 AM 33.8 °F 29.6 °F 33.8 °F 100% 29.67 in 0.2 mi NE 4.6 mph - 0.01 in Fog Fog
10:33 AM 33.8 °F 28.6 °F 34.0 °F 100% 29.68 in 0.2 mi NE 5.8 mph - 0.01 in Fog Fog
10:53 AM 34.0 °F 31.0 °F 34.2 °F 100% 29.69 in 0.2 mi NE 3.5 mph - 0.01 in Fog Fog
11:13 AM 34.3 °F 30.2 °F 34.5 °F 100% 29.68 in 0.2 mi NE 4.6 mph - N/A Fog Fog
11:33 AM 34.7 °F 28.8 °F 34.7 °F 100% 29.67 in 0.2 mi NE 6.9 mph - N/A Fog Fog
11:54 AM 34.9 °F 29.9 °F 35.1 °F 100% 29.67 in 0.2 mi NE 5.8 mph - N/A Fog Fog
12:13 PM 35.1 °F 30.1 °F 35.2 °F 100% 29.68 in 0.2 mi NNE 5.8 mph - N/A Fog Fog
12:33 PM 35.2 °F 29.5 °F 35.6 °F 100% 29.67 in 0.5 mi NE 6.9 mph - N/A Fog Fog
12:53 PM 35.2 °F 29.5 °F 35.6 °F 100% 29.67 in 0.5 mi NE 6.9 mph - N/A Fog Fog
1:13 PM 35.2 °F 29.5 °F 35.6 °F 100% 29.67 in 0.2 mi NE 6.9 mph - N/A Fog Fog
1:33 PM 35.2 °F 29.5 °F 35.6 °F 100% 29.66 in 0.2 mi NNE 6.9 mph - N/A Fog Fog
1:52 PM 35.1 °F 29.3 °F 35.2 °F 100% 29.67 in 0.2 mi NNE 6.9 mph - N/A Fog Fog
2:13 PM 34.9 °F 28.3 °F 35.1 °F 100% 29.66 in 0.2 mi NE 8.1 mph - N/A Fog Fog
2:33 PM 34.7 °F 27.5 °F 34.9 °F 100% 29.66 in 0.2 mi NE 9.2 mph - N/A Fog Fog
2:53 PM 34.9 °F 27.7 °F 35.1 °F 100% 29.66 in 0.2 mi NNE 9.2 mph - N/A Fog Fog
3:14 PM 34.7 °F 29.6 °F 34.9 °F 100% 29.67 in 0.5 mi NNE 5.8 mph - N/A Fog Fog
3:33 PM 34.7 °F 27.5 °F 34.7 °F 100% 29.68 in 0.2 mi NE 9.2 mph - N/A Fog Fog
3:54 PM 34.7 °F 28.1 °F 34.9 °F 100% 29.69 in 0.5 mi NE 8.1 mph - N/A Fog Fog
4:14 PM 34.7 °F 28.8 °F 34.7 °F 100% 29.69 in 2.0 mi ENE 6.9 mph - N/A   Overcast
4:33 PM 34.7 °F 28.8 °F 34.7 °F 100% 29.69 in 3.0 mi NE 6.9 mph - N/A   Overcast
4:53 PM 34.7 °F 30.6 °F 34.7 °F 100% 29.70 in 5.0 mi NE 4.6 mph - N/A   Overcast
5:14 PM 34.3 °F 28.4 °F 34.3 °F 100% 29.71 in 5.0 mi NE 6.9 mph - N/A   Overcast
5:33 PM 34.3 °F 28.4 °F 34.3 °F 100% 29.72 in 7.0 mi NE 6.9 mph - N/A   Overcast
5:53 PM 34.2 °F 29.0 °F 34.2 °F 100% 29.73 in 7.0 mi NE 5.8 mph - N/A   Overcast
6:13 PM 34.3 °F 27.7 °F 34.2 °F 99% 29.74 in 5.0 mi NE 8.1 mph - N/A   Overcast
6:34 PM 34.3 °F 29.2 °F 34.2 °F 99% 29.74 in 5.0 mi NNE 5.8 mph - N/A   Overcast
6:53 PM 34.2 °F 28.2 °F 34.0 °F 99% 29.75 in 3.0 mi NNE 6.9 mph - N/A   Overcast
7:13 PM 34.0 °F 27.2 °F 33.8 °F 99% 29.74 in 2.5 mi NE 8.1 mph - N/A   Light Drizzle
7:33 PM 33.8 °F 27.0 °F 33.8 °F 100% 29.74 in 2.0 mi NE 8.1 mph - N/A   Drizzle
7:53 PM 33.8 °F 27.0 °F 33.8 °F 100% 29.74 in 2.0 mi NE 8.1 mph - N/A   Light Drizzle
8:13 PM 33.4 °F 25.4 °F 33.3 °F 99% 29.70 in 2.0 mi ENE 10.4 mph - N/A   Light Drizzle
8:33 PM 33.3 °F 25.7 °F 33.1 °F 99% 29.73 in 2.5 mi ENE 9.2 mph - N/A   Light Drizzle
8:53 PM 33.3 °F 26.4 °F 33.1 °F 99% 29.74 in 2.5 mi ENE 8.1 mph - N/A   Light Drizzle
9:13 PM 33.3 °F 27.1 °F 33.1 °F 99% 29.76 in 2.5 mi NE 6.9 mph - N/A   Overcast
9:33 PM 32.9 °F 25.9 °F 32.9 °F 100% 29.75 in 2.0 mi NE 8.1 mph - N/A   Overcast
9:53 PM 32.9 °F 25.3 °F 32.9 °F 100% 29.75 in 2.0 mi NE 9.2 mph - N/A   Overcast
10:13 PM 32.9 °F 25.9 °F 32.7 °F 99% 29.75 in 1.8 mi NE 8.1 mph - N/A   Overcast
10:33 PM 32.9 °F 25.3 °F 32.7 °F 99% 29.75 in 2.0 mi NE 9.2 mph - N/A   Overcast
10:53 PM 32.7 °F 25.7 °F 32.5 °F 99% 29.75 in 2.5 mi NE 8.1 mph - N/A   Overcast
11:13 PM 32.5 °F 25.5 °F 32.4 °F 99% 29.75 in 3.0 mi ENE 8.1 mph - N/A   Overcast
11:33 PM 32.5 °F - 32.4 °F 99% 29.75 in 4.0 mi Calm Calm - N/A   Overcast
11:53 PM 32.4 °F - 32.0 °F 99% 29.75 in 4.0 mi Calm Calm - N/A   Overcast